Location: Cincinnati Observatory Center
(39.1389°N, 84.4225°W)
Time: 12:58:09
(UTC-04:00)

Daily predictions for brighter satellites

Satellite Brightness Start Highest point End
(mag) Time Altitude Azimuth Time Altitude Azimuth Time Altitude Azimuth
SL-19 R/B 4.4 19:40:40 10° SSE 19:46:11 60° ENE 19:52:03 10° N
Cosmos 1758 4.3 19:43:01 10° SSE 19:46:30 28° E 19:50:01 10° NNE
ALOS 4.0 19:44:20 10° E 19:46:41 14° ENE 19:49:03 10° NNE
Helios 1A 4.3 19:47:30 10° ESE 19:50:39 21° ENE 19:53:50 10° NNE
Spot 2 Rocket 4.3 19:46:39 10° SE 19:50:57 29° ENE 19:55:14 10° N
ISS -2.2 19:48:45 10° SSW 19:51:30 26° SE 19:54:17 10° ENE
Cosmos 1544 4.3 19:53:12 10° SE 19:56:07 22° E 19:59:03 10° NE
Okean 3 Rocket 3.9 19:53:00 10° N 19:57:33 75° W 20:02:04 10° S
Timation 1 Rocket 4.3 19:53:11 10° NNW 19:59:10 82° ENE 20:05:08 10° SSE
SL-8 R/B 3.9 19:54:31 10° SW 19:59:10 54° SE 20:03:50 10° ENE
Cosmos 2056 Rocket 4.2 19:55:17 10° NNW 20:00:40 62° WSW 20:05:59 10° S
SL-16 R/B 2.8 19:56:02 10° SW 20:01:39 63° WNW 20:07:20 10° NNE
SAR-Lupe-4 3.5 19:59:08 10° SSE 20:02:40 70° ENE 20:06:15 10° N
Cosmos 1766 3.5 20:00:14 10° SSW 20:04:10 75° W 20:08:10 10° N
Resurs 01 Rocket 2.2 20:01:45 10° SE 20:05:47 35° ENE 20:09:51 10° N
Cosmos 1378 3.4 20:04:38 10° NNW 20:08:22 73° W 20:12:04 10° S
HJ-1C 4.1 20:06:30 10° SE 20:09:32 32° ENE 20:12:35 10° N
USA 215 3.5 20:09:00 10° NE 20:15:21 51° SE 20:21:39 10° SSW
Meteor 2-12 Rocket 4.4 20:14:09 10° S 20:20:12 62° E 20:26:15 10° NNE
COSMO-SKYMED 1 4.1 20:17:07 10° N 20:21:09 39° WNW 20:25:11 10° SW
FREGAT/IRIS 2.5 20:19:38 10° SSE 20:22:42 85° E 20:25:48 10° N
Meteor 1-28 Rocket 3.3 20:19:27 10° N 20:23:10 78° WNW 20:26:52 10° SSW
Nadezhda 4 Rocket 4.2 20:18:24 10° N 20:24:30 50° E 20:30:29 10° SSE
Helios 1B rocket 2.5 20:20:33 10° NNE 20:24:36 53° E 20:28:37 10° S
Abrixas 2.5 20:22:00 10° WSW 20:24:59 79° NW 20:26:59 19° NE
H-2A R/B 3.9 20:28:07 22° E 20:28:54 24° ENE 20:32:02 10° NNE
GP-B 4.4 20:27:28 10° NE 20:30:36 21° E 20:30:36 21° E
Cosmos 1805 3.3 20:27:26 10° S 20:31:22 82° W 20:35:19 10° N
SeaSat 1 4.3 20:34:29 13° SE 20:34:29 13° SE 20:35:11 10° SSE
CZ-4B DEB 3.7 20:31:57 27° E 20:32:11 28° ENE 20:35:01 10° NNE
Cosmos 1092 Rocket 4.3 20:27:35 10° N 20:33:27 42° ENE 20:39:14 10° SSE
Cosmos 1346 2.9 20:31:16 10° N 20:34:13 61° E 20:36:08 19° SSE
GPS 2-04 Rocket1 3.2 20:32:19 10° WSW 20:35:33 37° SSE 20:36:40 28° SE
Gbstr 26 Del rocket 3.4 20:32:22 10° SSW 20:36:33 50° SE 20:39:48 20° ENE
TELKOM 3 4.1 20:35:36 10° NW 20:38:02 30° NNE 20:38:02 30° NNE
Cosmos 1953 2.7 20:34:56 10° SSW 20:38:52 64° W 20:42:51 10° N
Cosmos 1943 Rocket 3.8 20:35:23 10° NNE 20:38:52 16° NE 20:39:37 16° ENE
Cosmos 1766 Rocket 4.1 20:35:23 10° NNW 20:39:42 60° W 20:43:57 10° S
Meteor 1-29 2.8 20:38:48 10° NNE 20:42:19 74° ESE 20:45:47 10° S
Cosmos 2369 Rocket 2.8 20:37:49 10° N 20:43:05 38° ENE 20:45:20 27° ESE
Cosmos 1943 3.4 20:37:45 10° S 20:43:06 45° ESE 20:48:26 10° NE
Cosmos-2242 3.5 20:42:50 10° SSW 20:47:08 62° W 20:51:31 10° N
Cosmos 1634 Rocket 4.2 20:42:16 10° SSE 20:48:08 45° E 20:53:59 10° NNE
Cosmos 1603 4.1 20:43:35 10° SSW 20:49:17 68° WNW 20:55:03 10° NNE
Cosmos 2151 4.0 20:49:09 10° NNE 20:52:06 28° NE 20:52:06 28° NE
Cosmos 1733 3.2 20:50:08 10° S 20:53:55 54° E 20:57:42 10° NNE
OAO 3 Rocket 3.8 20:51:12 10° W 20:55:44 45° S 20:57:20 33° SE
Cosmos 1470 2.6 20:51:59 10° S 20:55:52 73° E 20:59:44 10° NNE
Cosmos 839 Rocket 4.5 20:53:48 10° NNW 21:01:14 52° NE 21:03:47 35° ESE
Cosmos 1674 2.6 21:00:57 10° N 21:04:51 87° W 21:06:19 37° S
ASTEX 1 3.2 21:00:03 10° N 21:04:58 81° E 21:09:51 10° S
Cosmos 1842 Rocket 3.7 21:07:08 10° SSW 21:11:26 72° W 21:15:47 10° N
Cosmos 1500 Rocket 3.6 21:07:53 10° N 21:12:20 79° W 21:14:49 26° S
CENTAUR R/B 2.4 21:12:25 10° SSW 21:18:24 88° WNW 21:25:12 10° NNE
ATLAS 5 CENTAUR R/B 4.2 21:16:57 10° W 21:20:45 22° NW 21:24:47 10° N
Meteor 1-16 Rocket 3.9 21:22:42 61° SE 21:23:15 65° E 21:28:31 10° NNE
ALOS 2.7 21:20:32 21° S 21:23:36 60° W 21:28:14 10° NNW
ISS -1.5 21:24:56 10° W 21:27:24 30° NW 21:27:24 30° NW
Meteor 1-11 4.1 21:26:48 10° N 21:32:35 67° E 21:32:39 67° E
Cosmos 1627 Rocket 4.3 21:29:39 10° N 21:35:54 85° E 21:37:44 49° SSE
Envisat 4.2 21:42:35 31° NNE 21:42:35 31° NNE 21:45:25 10° N
Resurs 01 Rocket 4.2 21:39:06 10° SW 21:42:20 20° W 21:45:36 10° NW
USA 215 4.0 21:53:08 15° NE 21:58:17 48° NW 22:04:28 10° WSW
Cosmos 2279 Rocket 4.1 22:09:41 70° WNW 22:09:41 70° WNW 22:15:42 10° N
ERS-1 Rocket 4.4 22:15:36 33° NNW 22:15:36 33° NNW 22:18:22 10° NNW
Cosmos 1943 Rocket 3.3 22:17:39 10° NNW 22:21:10 39° NNW 22:21:10 39° NNW
CZ-3A R/B 4.3 21:47:40 10° SSW 22:26:40 74° SE 22:27:52 68° E
Cosmos 2369 Rocket 3.7 22:22:07 10° NW 22:26:56 29° WSW 22:27:10 29° WSW
